STARLINK-1066 (44954 NORAD) Tracking and Keplerian Element Data

This shows tracking and keplerian element data for the satellite.

Feedback or suggestion? Click here.




ElementValue
Catalog44954
NameSTARLINK-1066
Epoch Orbit1365
Epoch Day94.25001157
Epoch Year2020
RAAN324.7666
Inclination53.0002
Eccentricity0.0008728
Argument of Perigee304.4281
Mean Anonmoly313.1768
Mean Motion15.62747757
Decay Rate-0.00026507
L11 44954U 20001AS 20094.25001157 -.00026507 00000-0 -28397-3 0 9999
L22 44954 53.0002 324.7666 0008728 304.4281 313.1768 15.62747757 13654

Live tracking and technical data element details for STARLINK-1066 (NORAD 44954). STARLINK-1066 can be tracked NOW for your location showing map with azimuth and elevation plus other details from your city location.

Track the satellite on the map from your city or location and see movement details for azimuth, elevation, latitude, longitude, range, height, and movement on the map or in text.







IsCatalogInMostPopularTable: catalog: 44954, numindb: 27
Update: records affected: 1



GetName: 44954 STARLINK-1066

Hit Count: updated at: Sat, 04 Apr 2020 00:00:02 GMT